This demonstration page uses our WeatherBlox Daily Observations layout. Learn more.

Left ArrowRight Arrow

41.86663, -103.66717

Hourly Observations for April 16, 2021

Temp ( °F °C ) Dew Point ( °F °C ) Humidity (%) Winds ( mph kmh ) Pressure ( in mb ) Visibility ( mi km ) Precip ( " mm )
12:03 am 00:03 Cloudy with Light Snow 31 -0.6 27 -2.8 85 85 N 10 17 30.27 1025 2.5 4.02335 0.001 0.001
12:39 am 00:39 Cloudy with Light Snow 31 -0.6 27 -2.8 85 85 N 13 20 30.27 1025 3 4.82802 0.01 0.254
12:53 am 00:53 Cloudy with Light Snow 31 -0.6 27 -2.8 85 85 NNE 13 20 30.22 1023 2.5 4.02335 0.01 0.254
1:18 am 01:18 Cloudy with Light Snow 31 -0.6 27 -2.8 85 85 NNE 12 19 30.27 1025 1.75 2.816345 0.001 0.001
1:27 am 01:27 Cloudy with Light Snow 31 -0.6 27 -2.8 85 85 NNE 13 20 30.27 1025 2 3.21868 0.001 0.001
1:53 am 01:53 Cloudy with Light Snow 31 -0.6 27 -2.8 85 85 N 12 19 30.22 1023 1.75 2.816345 0.01 0.254
2:03 am 02:03 Cloudy with Light Snow 31 -0.6 27 -2.8 85 85 NNE 12 19 30.26 1025 2 3.21868 0.001 0.001
2:16 am 02:16 Cloudy with Light Snow 31 -0.6 27 -2.8 85 85 NNE 13 20 30.26 1025 2 3.21868 0.001 0.001
2:31 am 02:31 Cloudy with Light Snow 30 -1 27 -3 86 86 N 12 19 30.27 1025 4 6.43736 0 0
2:53 am 02:53 Cloudy 31 -0.6 26 -3.3 82 82 N 10 17 30.21 1023 9 14.48406 0.001 0.001
3:53 am 03:53 Cloudy with Light Snow 31 -0.6 27 -2.8 85 85 N 7 11 30.21 1023 3 4.82802 0.001 0.001
4:03 am 04:03 Cloudy with Light Snow 31 -0.6 27 -2.8 85 85 N 7 11 30.26 1025 3 4.82802 0.001 0.001
4:23 am 04:23 Cloudy with Light Snow 30 -1 27 -3 86 86 NNW 8 13 30.27 1025 3 4.82802 0 0
4:36 am 04:36 Cloudy with Light Snow 31 -0.6 27 -2.8 85 85 NNW 8 13 30.26 1025 3 4.82802 0.01 0.254
4:46 am 04:46 Cloudy with Light Snow 31 -0.6 28 -2.2 89 89 NNW 6 9 30.26 1025 2 3.21868 0.01 0.254
4:53 am 04:53 Cloudy with Light Snow 31 -0.6 28 -2.2 89 89 NNW 8 13 30.21 1023 1.75 2.816345 0.01 0.254
5:36 am 05:36 Cloudy with Light Snow 31 -0.6 27 -2.8 85 85 NW 8 13 30.27 1025 2 3.21868 0.02 0.508
5:53 am 05:53 Cloudy with Light Snow 31 -0.6 27 -2.8 85 85 NW 7 11 30.22 1023 2.5 4.02335 0.02 0.508
6:20 am 06:20 Cloudy with Light Snow 31 -0.6 27 -2.8 85 85 WNW 8 13 30.27 1025 1.5 2.41401 0.001 0.001
6:53 am 06:53 Cloudy with Light Snow 30 -1.1 27 -2.8 88 88 WNW 9 15 30.23 1024 1.25 2.011675 0.01 0.254
7:34 am 07:34 Cloudy with Light Snow 31 -0.6 27 -2.8 85 85 WNW 8 13 30.29 1026 0.75 1.207005 0.01 0.254
7:53 am 07:53 Mostly Cloudy with Light Snow 31 -0.6 28 -2.2 89 89 WNW 8 13 30.24 1024 0.75 1.207005 0.02 0.508
8:00 am 08:00 Mostly Cloudy with Light Snow 31 -0.6 28 -2.2 89 89 WNW 8 13 30.29 1026 1 1.60934 0.001 0.001
8:19 am 08:19 Mostly Cloudy with Light Snow 30 -1 28 -2 93 93 NW 8 13 30.31 1026 0.75 1.207005 0 0
8:38 am 08:38 Mostly Cloudy with Light Snow 32 0 28 -2.2 85 85 NW 8 13 30.29 1026 0.75 1.207005 0.02 0.508
8:53 am 08:53 Cloudy with Light Snow 31 -0.6 28 -2.2 89 89 WNW 7 11 30.25 1025 0.75 1.207005 0.02 0.508
9:49 am 09:49 Cloudy with Light Snow 32 0 28 -2 87 87 WNW 9 15 30.3 1026 0.75 1.207005 0.02 0.508
9:53 am 09:53 Cloudy with Light Snow 32 0 29 -1.7 88 88 NW 10 17 30.26 1025 0.75 1.207005 0.03 0.762
10:18 am 10:18 Cloudy with Light Snow 33 0.6 29 -1.7 85 85 WNW 9 15 30.29 1026 1 1.60934 0.001 0.001
10:49 am 10:49 Cloudy with Light Snow 34 1 28 -2 81 81 NW 10 17 30.29 1026 1.75 2.816345 0 0
10:53 am 10:53 Cloudy with Light Snow 34 1.1 29 -1.7 82 82 NW 10 17 30.26 1025 1.75 2.816345 0.01 0.254
11:00 am 11:00 Cloudy with Light Snow 34 1.1 29 -1.7 82 82 WNW 9 15 30.29 1026 2 3.21868 0.001 0.001
11:53 am 11:53 Cloudy with Light Snow 35 1.7 29 -1.7 78 78 NW 12 19 30.26 1025 2.5 4.02335 0.001 0.001
12:02 pm 12:02 Cloudy with Light Snow 35 1.7 29 -1.7 78 78 NW 13 20 30.28 1026 3 4.82802 0.001 0.001
12:34 pm 12:34 Cloudy with Light Snow 36 2.2 30 -1.1 79 79 NNW 10 17 30.28 1025 3 4.82802 0.001 0.001
12:39 pm 12:39 Cloudy with Light Snow 36 2.2 30 -1.1 79 79 NW 13 20 30.28 1025 2.5 4.02335 0.001 0.001
12:53 pm 12:53 Cloudy with Light Snow 36 2.2 30 -1.1 79 79 NNW 10 17 30.26 1025 2.5 4.02335 0.001 0.001
1:19 pm 13:19 Cloudy with Light Snow 36 2.2 30 -1.1 79 79 undefined N/A 30.28 1025 2 3.21868 0.01 0.254
1:26 pm 13:26 Cloudy with Light Snow 36 2.2 30 -1.1 79 79 undefined N/A 30.28 1025 2 3.21868 0.01 0.254
1:29 pm 13:29 Cloudy with Light Snow 35 1.7 30 -1.1 82 82 undefined N/A 30.28 1026 1.75 2.816345 0.01 0.254
1:43 pm 13:43 Cloudy with Light Snow 36 2.2 31 -0.6 82 82 undefined N/A 30.28 1025 1.5 2.41401 0.01 0.254
1:53 pm 13:53 Cloudy with Light Snow 36 2.2 30 -1.1 79 79 undefined N/A 30.27 1025 1.75 2.816345 0.01 0.254
1:58 pm 13:58 Cloudy with Light Snow 36 2.2 31 -0.6 82 82 undefined N/A 30.28 1025 1.5 2.41401 0.001 0.001
2:05 pm 14:05 Cloudy with Light Snow 36 2.2 31 -0.6 82 82 undefined N/A 30.29 1026 1.75 2.816345 0.001 0.001
2:08 pm 14:08 Cloudy with Light Snow 36 2.2 31 -0.6 82 82 undefined N/A 30.28 1025 2 3.21868 0.001 0.001
2:16 pm 14:16 Cloudy with Light Snow 36 2.2 31 -0.6 82 82 undefined N/A 30.28 1025 2 3.21868 0.001 0.001
2:29 pm 14:29 Cloudy with Light Snow 36 2.2 31 -0.6 82 82 NW 10 17 30.28 1025 2.5 4.02335 0.01 0.254
2:53 pm 14:53 Cloudy with Light Snow 37 2.8 31 -0.6 79 79 undefined N/A 30.26 1025 3 4.82802 0.01 0.254
3:53 pm 15:53 Cloudy 38 3.3 32 0 79 79 NW 10 17 30.25 1024 10 16.0934 0.001 0.001
4:37 pm 16:37 Cloudy 39 3.9 30 -1.1 70 70 NNW 9 15 30.25 1024 10 16.0934 0 0
4:53 pm 16:53 Cloudy 38 3.3 30 -1.1 73 73 NNW 13 20 30.25 1025 10 16.0934 0 0
5:05 pm 17:05 Cloudy 39 4 30 -1 70 70 NNW 12 19 30.25 1024 9 14.48406 0 0
5:40 pm 17:40 Cloudy 39 3.9 30 -1.1 70 70 NW 12 19 30.25 1024 10 16.0934 0 0
5:53 pm 17:53 Cloudy 39 3.9 30 -1.1 70 70 NNW 10 17 30.26 1025 10 16.0934 0 0
6:53 pm 18:53 Cloudy 39 3.9 30 -1.1 70 70 NNW 6 9 30.26 1025 10 16.0934 0 0
7:53 pm 19:53 Cloudy 36 2.2 30 -1.1 79 79 NW 5 7 30.28 1025 10 16.0934 0 0
8:53 pm 20:53 Cloudy with Light Rain 36 2.2 31 -0.6 82 82 NW 6 9 30.3 1026 9 14.48406 0.001 0.001
9:25 pm 21:25 Cloudy with Light Snow 35 1.7 32 0 89 89 NW 7 11 30.32 1027 7 11.26538 0.01 0.254
9:53 pm 21:53 Cloudy with Light Rain 35 1.7 32 0 89 89 WNW 5 7 30.31 1026 10 16.0934 0.01 0.254
10:12 pm 22:12 Cloudy with Light Rain 36 2.2 32 0 86 86 WNW 5 7 30.32 1027 10 16.0934 0.01 0.254
10:49 pm 22:49 Cloudy 36 2 32 0 87 87 NNW 6 9 30.32 1027 10 16.0934 0.01 0.254
10:53 pm 22:53 Cloudy 36 2.2 32 0 86 86 NNW 7 11 30.3 1026 10 16.0934 0.01 0.254
11:11 pm 23:11 Cloudy 36 2.2 32 0 86 86 N 6 9 30.32 1027 10 16.0934 0 0
11:53 pm 23:53 Cloudy 36 2.2 32 0 86 86 WNW 6 9 30.29 1026 10 16.0934 0 0

Powered by AerisWeather